Back to catalog

STARLINK-5819

AliveCommunicationsVLEO
NORAD 55780·PAYLOAD·🇺🇸 United States

Launched Mar 3, 2023 from Vandenberg Space Force Base

Loading…

Next Passes (next 24 hours)

TLE

FreshSource: CelesTrak SupGP

Epoch: Sep 15, 2026, 02:42 UTC

1 55780C 23028AR  26258.11298611 -.00038771  00000+0 -32503-2 0  2582
2 55780  69.9999 106.6848 0002793 271.0585 357.6299 14.98337100    18

Track STARLINK-5819 in real time with AllMySat

Download on the App Store